This is the latest recevied weather packets stored in our database for station/object SR9WXP. If no packets are shown the sender has not sent any weather packets the latest 1 day(s).
| Time | Temp. | Humidity | Pressure | Rain* | Wind** | Luminosity | Snow |
|---|---|---|---|---|---|---|---|
| 1777972112 | 15.56° C | 50% | 852.6 hPa | - | 4.02 m/s, 182° | - | - |
| 1777972051 | 15.56° C | 50% | 852.6 hPa | - | 4.47 m/s, 184° | - | - |
| 1777971993 | 15.56° C | 50% | 852.5 hPa | - | 4.47 m/s, 190° | - | - |
| 1777971872 | 15.56° C | 50% | 852.5 hPa | - | 4.47 m/s, 179° | - | - |
| 1777971748 | 15.56° C | 50% | 852.5 hPa | - | 4.02 m/s, 174° | - | - |
| 1777971629 | 15.56° C | 50% | 852.5 hPa | - | 4.47 m/s, 176° | - | - |
| 1777971509 | 15.56° C | 50% | 852.5 hPa | - | 4.47 m/s, 177° | - | - |
| 1777971448 | 15.56° C | 50% | 852.6 hPa | - | 4.02 m/s, 183° | - | - |
| 1777971389 | 15.56° C | 50% | 852.6 hPa | - | 3.58 m/s, 186° | - | - |
| 1777971269 | 15.56° C | 50% | 852.7 hPa | - | 3.13 m/s, 183° | - | - |
| 1777971145 | 15.56° C | 50% | 852.7 hPa | - | 3.58 m/s, 183° | - | - |
| 1777970908 | 15.56° C | 50% | 852.7 hPa | - | 4.02 m/s, 177° | - | - |
| 1777970845 | 15.56° C | 50% | 852.7 hPa | - | 3.13 m/s, 176° | - | - |
| 1777970787 | 15.56° C | 50% | 852.7 hPa | - | 2.68 m/s, 174° | - | - |
| 1777970667 | 15° C | 50% | 852.7 hPa | - | 3.13 m/s, 192° | - | - |
| 1777970542 | 15° C | 50% | 852.7 hPa | - | 3.58 m/s, 185° | - | - |
| 1777970424 | 15° C | 50% | 852.7 hPa | - | 4.47 m/s, 185° | - | - |
| 1777970303 | 15° C | 51% | 852.7 hPa | - | 3.58 m/s, 173° | - | - |
| 1777970242 | 15° C | 50% | 852.7 hPa | - | 3.13 m/s, 168° | - | - |
| 1777970183 | 15° C | 51% | 852.7 hPa | - | 3.13 m/s, 175° | - | - |
| 1777970063 | 15° C | 50% | 852.8 hPa | - | 4.02 m/s, 183° | - | - |
| 1777969939 | 15° C | 50% | 852.8 hPa | - | 4.92 m/s, 182° | - | - |
| 1777969700 | 14.44° C | 50% | 852.8 hPa | - | 4.92 m/s, 177° | - | - |
| 1777969639 | 14.44° C | 50% | 852.8 hPa | - | 4.92 m/s, 177° | - | - |
| 1777969581 | 14.44° C | 50% | 852.8 hPa | - | 4.47 m/s, 178° | - | - |
* Rain since midnight (hover to see other rain measurements)
** Current wind speed in m/s (hover to see current wind gust speed)